TIANWANG 1B (TW-1B)
1 40927U 15051C   19338.92017537 +.00010180 +00000-0 +13927-3 0  9997
2 40927 097.1169 024.0584 0009077 110.0885 015.7869 15.57563853236326
TIANWANG 1A (TW-1A)
1 40928U 15051D   19339.55193182  .00001989  00000-0  49135-4 0  9997
2 40928  97.1302   7.0303 0011067 166.6410 346.0151 15.41619402235338
LAPAN A2
1 40931U 15052B   19337.59853776  .00000317  00000-0 -44920-4 0  9998
2 40931   5.9991 299.1110 0012413   7.6203 352.6160 14.76621820226116
LQSAT
1 40958U 15057A   19339.44599799  .00000028  00000-0  11923-4 0  9995
2 40958  97.8806  43.8849 0019329  59.0842 301.2263 14.73099212223792
CHUBUSAT 2
1 41338U 16012B   19339.49310663  .00000236  00000-0  11587-4 0  9993
2 41338  31.0019 145.6133 0013859 344.4487  15.5721 15.00216200208433
CHUBUSAT 3
1 41339U 16012C   19339.50951073  .00000204  00000-0  91106-5 0  9993
2 41339  31.0108 143.3862 0013850 352.1325   7.9099 15.00386720208433
OUFTI-1
1 41458U 16025C   19339.21605033  .00002261  00000-0  11676-3 0  9996
2 41458  98.1006  74.6971 0166088 146.6382 214.5444 15.06277514198089
E-STAR-2
1 41459U 16025D   19339.34074647  .00002481  00000-0  12841-3 0  9991
2 41459  98.1000  74.3869 0167665 147.9917 213.1625 15.05890295198078
AAUSAT 4
1 41460U 16025E   19339.56134324  .00002296  00000-0  11660-3 0  9998
2 41460  98.0956  76.3131 0156740 138.1306 223.2058 15.07949750198265
NUSAT 1
1 41557U 16033B   19339.52909365  .00000871  00000-0  34961-4 0  9992
2 41557  97.4130  66.0255 0015095  61.5010 298.7747 15.27577836196017
BEESAT 4
1 41619U 16040W   19339.45331306  .00001071  00000-0  47726-4 0  9991
2 41619  97.3478  38.3523 0012329 140.4649 219.7489 15.23515133179703
PRATHAM
1 41783U 16059A   19339.41952263  .00000039  00000-0  16785-4 0  9994
2 41783  98.0465  35.0578 0033011 208.1910 151.7506 14.63024513170365
ALSAT 1N
1 41789U 16059G   19339.39979507  .00000091  00000-0  26287-4 0  9993
2 41789  98.0484  37.4093 0028012 196.5333 163.4957 14.64281182170485
NAYIF 1
1 42017U 17008BX  19339.43229221  .00001118  00000-0  46352-4 0  9995
2 42017  97.3854  44.6368 0004692 297.6237  62.4524 15.25951154155800
MAX VALIER SAT
1 42778U 17036P   19339.46514188  .00000673  00000-0  32174-4 0  9994
2 42778  97.3338  33.2089 0011930 356.1345   3.9797 15.22284650136065
